User: anonymous
Location: Vancouver
(49.2500°N, 123.1330°W)
Time: 12:58:04
(UTC-07:00)
Language:

Cosmos 1864 Rocket - Orbit

View from above orbital plane
View from above orbital plane
View from above satellite
View from above satellite

Ground track
Ground track

The orbit data is extracted from the following two-line orbital elements,

1 18161U 87057B   14205.92581470  .00000027  00000-0  11935-4 0  5237
2 18161 082.9365 139.3832 0031829 037.4101 029.0688 13.76853924338599
Epoch (UTC): 24 July 2014 22:13:10
Eccentricity: 0.0031829
inclination: 82.9365°
perigee height: 951 km
apogee height: 998 km
right ascension of ascending node: 139.3832°
argument of perigee: 37.4101°
revolutions per day: 13.76853924
mean anomaly at epoch: 29.0688°
orbit number at epoch: 33859

The dashed part of the orbit path shows where the satellite is in the earth's shadow,  

DLR